THORAD AGENA D DEB, 5151

Orbit data source: Space-Track

THORAD AGENA D DEB, 5151 is space debris in SSO originally from a launch on Wed, 08 Apr 1970 UTC launched from the Air Force Western Test Range (AFWTR). Debris objects in space refer to the collection of defunct objects orbiting the Earth. Examples of debris include non-operational satellites, rocket bodies, and fragments generated from explosions, collisions, or faulty payload assembly.

Loading next visibility...
Identifier
5151, 1970-025JU
Orbit
SSO
Country
Flag of USUS
Related business
Manufacturer
Unknown
Mission
Spacecraft
Bus & Motor
Unknown
Mass
Unknown
Launch date (UTC)
1970-04-08 (56 years ago)
Launch vehicle
Unknown
Launch site
Air Force Western Test Range (AFWTR)
Object type
Payload
Rocket body
Debris
Shape & HBR
Unknown shape, 0.1 m
Radar Cross Section
Small (<0.1 m²)

Expand to show TLE details & history
Last TLE update: 8 hours ago

TLE from 8 hours ago
0 THORAD AGENA D DEB
1  5151U 70025JU  25300.09787744  .00000597  00000-0  79550-3 0  9992
2  5151 100.0959 156.7800 0002325  39.7462 112.1080 13.65151604251977
Epoch: 2025-10-27T02:20Z
TLE epoch observation values (Epoch: 2025-10-27T02:20:56.610Z)
Latitude
27.68957°
Longitude
-88.82682°
Altitude
1,020.963 km
Speed
7.343 km/s
True Right ascension
22h 48m 27s
True Declination
27° 33' 12"
Sunlit
Object was in full shadow at epoch
Visualization orbit readout
Latitude
Unknown
Longitude
Unknown
Altitude
Unknown
Speed
Unknown
Apparent Right ascension
Unknown
Apparent Declination
Unknown
Sunlit
N/A
Visualization observer readout
Local Sidereal Time
06:10:16
Azimuth
Unknown
Elevation
Unknown
Doppler factor
Unknown
Orbital elements
Apogee altitude
1,016.05 km
Perigee altitude
1,012.612 km
Semi-major axis
7,392.468 km
Eccentricity
0.00023
Inclination
100.0959°
RAAN
156.78°
Arg. of periapsis
39.7462°
True anomaly
112.13268°
Mean anomaly
112.108°
Eccentric anomaly
112.12034°
Mean motion
3.41475 °/min
Orbital period
105.42 mins
BSTAR
0.0007955
Loading maneuver chart data...
Computing Atmospheric mass density...

Documentation

Showing up to 5 results
|